Retour au catalogue

LEMUR 2 ESPERANZA

ActifScienceSSO
NORAD 63352·PAYLOAD·🇺🇸 United States

Lancé Mar 26, 2025 depuis Rocket Lab Launch Complex 1

Loading…

Prochains Passages (prochaines 24 heures)

TLE

FraisSource: Space-Track

Époque: Sep 14, 2026, 16:41 UTC

1 63352U 25061B   26257.69555615  .00003222  00000-0  18001-3 0  9999
2 63352  97.5752 232.6014 0017013 320.4899  39.5091 15.14123378 81136

Suivez LEMUR 2 ESPERANZA en temps réel avec AllMySat

Download on the App Store